TimeCDT,TemperatureF,Dew PointF,Humidity,Sea Level PressureIn,VisibilityMPH,Wind Direction,Wind SpeedMPH,Gust SpeedMPH,PrecipitationIn,Events,Conditions,WindDirDegrees,DateUTC
12:53 AM,48.9,46.0,90,30.12,10.0,Calm,Calm,-,N/A,,Clear,0,2012-10-09 05:53:00
1:53 AM,48.0,46.0,93,30.12,10.0,Calm,Calm,-,N/A,,Clear,0,2012-10-09 06:53:00
3:53 AM,46.9,45.0,93,30.11,10.0,Calm,Calm,-,N/A,,Clear,0,2012-10-09 08:53:00
4:53 AM,46.0,44.1,93,30.12,10.0,Calm,Calm,-,N/A,,Clear,0,2012-10-09 09:53:00
5:53 AM,46.0,44.1,93,30.13,10.0,Calm,Calm,-,N/A,,Clear,0,2012-10-09 10:53:00
6:53 AM,45.0,43.0,93,30.14,10.0,Calm,Calm,-,N/A,,Clear,0,2012-10-09 11:53:00
7:53 AM,48.9,46.0,90,30.15,10.0,Calm,Calm,-,N/A,,Clear,0,2012-10-09 12:53:00
8:53 AM,54.0,50.0,86,30.15,10.0,Calm,Calm,-,N/A,,Clear,0,2012-10-09 13:53:00
9:53 AM,59.0,46.0,62,30.15,10.0,SE,6.9,-,N/A,,Clear,130,2012-10-09 14:53:00
10:53 AM,62.1,46.9,58,30.15,10.0,Calm,Calm,-,N/A,,Clear,0,2012-10-09 15:53:00
11:53 AM,64.9,48.9,56,30.13,10.0,SW,4.6,-,N/A,,Clear,220,2012-10-09 16:53:00
12:53 PM,69.1,48.9,49,30.10,10.0,WSW,5.8,-,N/A,,Clear,250,2012-10-09 17:53:00
1:53 PM,70.0,48.9,47,30.07,10.0,WNW,5.8,-,N/A,,Clear,300,2012-10-09 18:53:00
2:53 PM,70.0,46.9,44,30.05,10.0,Calm,Calm,-,N/A,,Clear,0,2012-10-09 19:53:00
3:53 PM,73.0,48.0,41,30.03,10.0,Variable,5.8,-,N/A,,Clear,0,2012-10-09 20:53:00
4:53 PM,72.0,48.0,43,30.02,10.0,WSW,4.6,-,N/A,,Clear,250,2012-10-09 21:53:00
5:53 PM,71.1,48.9,45,30.01,10.0,West,3.5,-,N/A,,Clear,260,2012-10-09 22:53:00
6:53 PM,64.0,53.1,67,30.01,10.0,Calm,Calm,-,N/A,,Clear,0,2012-10-09 23:53:00
7:53 PM,63.0,52.0,67,30.01,10.0,SE,3.5,-,N/A,,Clear,140,2012-10-10 00:53:00
8:53 PM,60.1,53.1,78,30.02,10.0,SE,5.8,-,N/A,,Clear,140,2012-10-10 01:53:00
9:53 PM,60.1,53.1,78,30.04,10.0,SE,4.6,-,N/A,,Clear,140,2012-10-10 02:53:00
10:53 PM,61.0,53.1,75,30.05,10.0,Calm,Calm,-,N/A,,Clear,0,2012-10-10 03:53:00
11:53 PM,62.1,54.0,75,30.08,10.0,Calm,Calm,-,N/A,,Overcast,0,2012-10-10 04:53:00